STARLINK-11263 [DTC]

Last updated on Sat Sep 28 2024 00:02:03 GMT+0000 (Coordinated Universal Time)

1 60725U 24152F 24271.22804678 .00003346 00000+0 32453-4 0 9993 2 60725 53.1608 201.4121 0001186 78.5338 281.5813 15.69718793 5836
UTC large
Height (km)
Speed (km/s)
/
Latitude / Longitude
Inclination (degrees)
Orbital Period (minutes)
Azimuth
Elevation
Range (km)
Doppler Factor

Next 0 passes for location: London (51.5072 / 0.1276)

Sorry there are no passes over London.